STARLINK-37046, 68102

Orbit data source: Space-Track

STARLINK-37046, 68102 is a payload satellite owned by SpaceX/Seattle (US) in SSO that was launched on Sun, 08 Mar 2026 UTC via an FALCON 9 launch vehicle from the Air Force Western Test Range (AFWTR). Payload-class satellites include a variety of spacecraft equipped with specific instruments for various scientific and technological missions. These include communications satellites like Starlink; space stations such as the ISS; scientific satellites like the Hubble; Earth observation satellites from companies like Planet Labs, Umbra, and HawkEye 360; GPS; miniature CubeSats for education and research; and military/defense satellites.

Loading next visibility...
Identifier
68102, 2026-044B
Orbit
SSO
Country
Flag of USUS
Related business
Manufacturer
SpaceX/Seattle
Mission
Operational Commercial Communications
Bus & Motor
STARLINK V2MO, Unknown motor
Mass
575 kg wet, ~530 kg dry
Launch date (UTC)
2026-03-08 (6 months ago)
Launch vehicle
FALCON 9
Launch site
Air Force Western Test Range (AFWTR)
Object type
Payload
Rocket body
Debris
Shape & HBR
Box + 1 Pan, 17.7 m
Radar Cross Section
41.120 m², Large (>1 m²)

Expand to show TLE details & history
Last TLE update: 15 hours ago

TLE from 15 hours ago
0 STARLINK-37046
1 68102U 26044B   26246.79913728  .00005656  00000-0  17739-3 0  9991
2 68102  97.2858 205.9132 0002394  79.8320 280.3193 15.33440595 28877
Epoch: 2026-09-03T19:10Z
TLE epoch observation values (Epoch: 2026-09-03T19:10:45.460Z)
Latitude
-0.00002°
Longitude
-64.70835°
Altitude
468.375 km
Speed
7.632 km/s
True Right ascension
13h 43m 39s
True Declination
0° 00' 00"
Sunlit
Object was in daylight at epoch
Visualization orbit readout
Latitude
Unknown
Longitude
Unknown
Altitude
Unknown
Speed
Unknown
Apparent Right ascension
Unknown
Apparent Declination
Unknown
Sunlit
N/A
Visualization observer readout
Local Sidereal Time
01:42:52
Azimuth
Unknown
Elevation
Unknown
Doppler factor
Unknown
Orbital elements
Apogee altitude
464.137 km
Perigee altitude
460.861 km
Semi-major axis
6,840.636 km
Eccentricity
0.00024
Inclination
97.2858°
RAAN
205.9132°
Arg. of periapsis
79.832°
True anomaly
280.29231°
Mean anomaly
280.3193°
Eccentric anomaly
280.3058°
Mean motion
3.83618 °/min
Orbital period
93.84 mins
BSTAR
0.00017739
Loading maneuver chart data...
Computing Atmospheric mass density...
Loading historical data...
Loading historical data...
Loading historical data...
Loading historical data...
Loading historical data...
Loading historical data...
Loading historical data...

Documentation

Showing up to 5 results
|